Date String (YYYY-MM-DD hh:mm:ss) UTC,Instrument flags,Ambient pressure (hPa),Sample flow (lpm),Bypass flow (lpm),Sample temperature (°C),Ambient temperature (°C),ASC tube jacket temperature (°C),LED temperature (°C),Box temperature (°C),Sample RH (%),Span deviation,Mass concentration (μg/m³),Mass concentration (μg/m³),Mass concentration (μg/m³)
DateTimeUTC,F1_M11,P_M11,Q1_M11,Q2_M11,T1_M11,T2_M11,T3_M11,T4_M11,T5_M11,U1_M11,ZSPAN_M11,X0_M11,X2_M11,X1_M11
2022-03-27 22:00:00,,0821.3,4.99,0.00,28.2,27.4,00.0,37.0,30.0,15.2,-001.2,0024.83,0011.69,0010.18
2022-03-27 22:01:00,,0821.3,4.99,0.00,28.2,27.5,00.0,37.0,30.0,15.2,-001.5,0026.63,0011.76,0010.18
2022-03-27 22:02:00,,0821.3,4.99,0.00,28.2,27.5,00.0,37.0,30.0,15.4,-001.6,0027.22,0011.73,0010.17
2022-03-27 22:03:00,,0821.3,5.01,0.00,28.2,27.5,00.0,37.1,30.0,15.1,-001.6,0026.71,0011.70,0010.18
2022-03-27 22:04:00,,0821.2,5.00,0.00,28.3,27.5,00.0,37.1,30.1,15.1,-001.0,0026.32,0011.67,0010.18
2022-03-27 22:05:00,,0821.2,4.99,0.00,28.3,27.5,00.0,37.1,30.1,15.0,-000.5,0026.79,0011.70,0010.21
2022-03-27 22:06:00,,0821.2,5.00,0.00,28.3,27.6,00.0,37.1,30.1,15.0,-000.2,0027.63,0011.70,0010.23
2022-03-27 22:07:00,,0821.3,5.00,0.00,28.3,27.6,00.0,37.1,30.1,14.8,-000.6,0027.28,0011.73,0010.24
2022-03-27 22:08:00,,0821.3,4.99,0.00,28.3,27.6,00.0,37.1,30.1,14.9,-000.2,0027.21,0011.75,0010.25
2022-03-27 22:09:00,,0821.3,4.99,0.00,28.3,27.6,00.0,37.1,30.1,14.8,-001.0,0026.85,0011.82,0010.29
2022-03-27 22:10:00,,0821.3,5.01,0.00,28.3,27.6,00.0,37.2,30.1,14.8,-001.0,0026.37,0011.85,0010.33
2022-03-27 22:11:00,,0821.2,5.00,0.00,28.3,27.6,00.0,37.2,30.1,15.0,-000.8,0025.35,0011.83,0010.37
2022-03-27 22:12:00,,0821.1,4.99,0.00,28.3,27.6,00.0,37.2,30.1,14.8,-000.2,0023.87,0011.79,0010.41
2022-03-27 22:13:00,,0821.2,4.99,0.00,28.4,27.6,00.0,37.2,30.2,14.7,-000.1,0022.21,0011.79,0010.46
2022-03-27 22:14:00,,0821.3,5.01,0.00,28.4,27.6,00.0,37.2,30.2,15.0,0000.1,0023.01,0011.82,0010.51
2022-03-27 22:15:00,,0821.3,5.00,0.00,28.4,27.6,00.0,37.2,30.2,14.5,-000.0,0024.04,0011.99,0010.62
2022-03-27 22:16:00,,0821.3,5.00,0.00,28.4,27.6,00.0,37.2,30.2,14.4,-000.1,0024.67,0012.13,0010.70
2022-03-27 22:17:00,,0821.2,5.01,0.00,28.4,27.7,00.0,37.2,30.2,14.6,0000.3,0024.02,0012.29,0010.81
2022-03-27 22:18:00,,0821.1,5.00,0.00,28.4,27.7,00.0,37.3,30.2,14.6,0000.6,0023.65,0012.56,0011.07
2022-03-27 22:19:00,,0821.1,4.99,0.00,28.4,27.7,00.0,37.3,30.2,14.5,0000.6,0025.16,0012.81,0011.35
2022-03-27 22:20:00,,0821.2,5.00,0.00,28.4,27.7,00.0,37.3,30.2,14.6,0000.8,0025.61,0013.07,0011.60
2022-03-27 22:21:00,,0821.1,5.00,0.00,28.5,27.7,00.0,37.3,30.3,14.5,0001.1,0025.66,0013.34,0011.84
2022-03-27 22:22:00,,0821.1,5.01,0.00,28.5,27.7,00.0,37.3,30.3,14.5,0001.0,0026.34,0013.63,0012.12
2022-03-27 22:23:00,,0821.2,5.00,0.00,28.5,27.7,00.0,37.3,30.3,14.6,0000.7,0027.14,0013.92,0012.37
2022-03-27 22:24:00,,0821.2,4.99,0.00,28.5,27.7,00.0,37.3,30.3,14.6,0000.8,0027.54,0014.23,0012.59
2022-03-27 22:25:00,,0821.2,5.01,0.00,28.5,27.7,00.0,37.4,30.3,14.6,0000.7,0027.28,0014.52,0012.82
2022-03-27 22:26:00,,0821.1,5.00,0.00,28.5,27.7,00.0,37.4,30.3,14.4,0000.9,0028.51,0014.70,0013.00
2022-03-27 22:27:00,,0821.1,4.99,0.00,28.5,27.7,00.0,37.4,30.3,14.4,0001.1,0027.78,0014.91,0013.23
2022-03-27 22:28:00,,0821.2,5.00,0.00,28.5,27.7,00.0,37.4,30.3,14.4,0001.3,0028.21,0015.12,0013.43
2022-03-27 22:29:00,,0821.2,5.01,0.00,28.5,27.8,00.0,37.4,30.4,14.5,0001.4,0028.69,0015.14,0013.50
2022-03-27 22:30:00,,0821.1,5.00,0.00,28.5,27.8,00.0,37.4,30.4,14.4,0001.4,0027.42,0015.16,0013.54
2022-03-27 22:31:00,,0821.1,4.99,0.00,28.6,27.8,00.0,37.4,30.4,14.4,0001.9,0027.57,0015.23,0013.63
2022-03-27 22:32:00,,0821.1,4.99,0.00,28.6,27.8,00.0,37.4,30.4,14.4,0002.0,0027.95,0015.31,0013.71
2022-03-27 22:33:00,,0821.1,5.02,0.00,28.6,27.8,00.0,37.4,30.4,14.3,0002.7,0028.26,0015.36,0013.74
2022-03-27 22:34:00,,0821.0,4.99,0.00,28.6,27.8,00.0,37.5,30.4,14.3,0003.0,0028.13,0015.41,0013.81
2022-03-27 22:35:00,,0821.0,4.99,0.00,28.6,27.9,00.0,37.5,30.4,14.5,0003.1,0029.01,0015.40,0013.88
2022-03-27 22:36:00,,0821.1,5.01,0.00,28.6,27.9,00.0,37.5,30.4,14.3,0003.3,0028.75,0015.44,0013.98
2022-03-27 22:37:00,,0821.1,5.00,0.00,28.6,27.8,00.0,37.5,30.4,14.5,0002.9,0027.36,0015.52,0014.07
2022-03-27 22:38:00,,0821.1,4.99,0.00,28.6,27.8,00.0,37.5,30.5,14.3,0002.8,0027.35,0015.48,0014.10
2022-03-27 22:39:00,,0821.1,5.00,0.00,28.6,27.9,00.0,37.5,30.5,14.3,0002.5,0028.15,0015.54,0014.18
2022-03-27 22:40:00,,0821.0,5.00,0.00,28.7,27.9,00.0,37.5,30.5,14.3,0002.5,0029.01,0015.74,0014.30
2022-03-27 22:41:00,,0821.0,5.00,0.00,28.7,27.9,00.0,37.5,30.5,14.3,0002.6,0029.80,0015.96,0014.43
2022-03-27 22:42:00,,0821.0,5.00,0.00,28.7,27.9,00.0,37.5,30.5,14.3,0003.0,0030.76,0016.17,0014.54
2022-03-27 22:43:00,,0821.1,5.01,0.00,28.7,27.9,00.0,37.5,30.5,14.2,0003.2,0031.63,0016.39,0014.71
2022-03-27 22:44:00,,0821.1,4.99,0.00,28.7,27.9,00.0,37.6,30.5,14.4,0002.9,0031.77,0016.57,0014.90
2022-03-27 22:45:00,,0821.1,5.00,0.00,28.7,27.9,00.0,37.6,30.5,14.4,0002.3,0031.91,0016.75,0015.11
2022-03-27 22:46:00,,0821.1,5.00,0.00,28.7,27.9,00.0,37.6,30.5,14.2,0001.9,0032.31,0017.01,0015.36
2022-03-27 22:47:00,,0821.0,4.98,0.00,28.7,27.9,00.0,37.6,30.5,14.1,0002.1,0032.94,0017.27,0015.59
2022-03-27 22:48:00,,0820.9,4.99,0.00,28.7,27.9,00.0,37.6,30.5,14.2,0002.6,0032.67,0017.45,0015.79
2022-03-27 22:49:00,,0820.9,5.01,0.00,28.7,27.9,00.0,37.6,30.5,14.0,0002.6,0032.42,0017.70,0016.01
2022-03-27 22:50:00,,0821.0,5.00,0.00,28.7,27.9,00.0,37.6,30.5,14.1,0002.6,0031.89,0017.91,0016.14
2022-03-27 22:51:00,,0821.0,4.98,0.00,28.7,27.9,00.0,37.6,30.6,14.2,0002.5,0031.45,0017.94,0016.21
2022-03-27 22:52:00,,0821.0,5.01,0.00,28.7,27.9,00.0,37.6,30.5,14.2,0002.7,0032.07,0017.97,0016.27
2022-03-27 22:53:00,,0821.0,4.99,0.00,28.7,27.9,00.0,37.6,30.5,14.2,0002.4,0032.48,0018.01,0016.39
2022-03-27 22:54:00,,0821.0,5.02,0.00,28.7,27.9,00.0,37.6,30.6,14.3,0002.2,0032.08,0018.01,0016.46
2022-03-27 22:55:00,,0821.0,4.98,0.00,28.8,27.9,00.0,37.6,30.6,14.3,0001.6,0031.99,0018.05,0016.53
2022-03-27 22:56:00,,0821.0,4.99,0.00,28.8,28.0,00.0,37.6,30.6,14.3,0001.6,0032.58,0018.09,0016.55
2022-03-27 22:57:00,,0821.1,5.01,0.00,28.8,28.0,00.0,37.7,30.6,14.1,0001.9,0031.52,0018.22,0016.65
2022-03-27 22:58:00,,0821.0,5.01,0.00,28.8,28.0,00.0,37.7,30.6,14.1,0001.6,0030.91,0018.33,0016.74
2022-03-27 22:59:00,,0821.0,5.00,0.00,28.8,28.0,00.0,37.7,30.6,14.1,0001.7,0031.66,0018.40,0016.86
